Beckley, WV

12:37 AM EST on December 13, 2017 (GMT -0500)
Raleigh County Memorial

Weather History for KBKW - December, 2012

Change the Weather History Date:

Friday, December 28, 2012

  Actual Average Record
Temperature  
Mean Temperature 30 °F 32 °F  
Max Temperature 35 °F 40 °F 70 °F (1984)
Min Temperature 24 °F 24 °F -6 °F (1925)
Degree Days  
Heating Degree Days 35 33  
Month to date heating degree days 650 853  
Since 1 July heating degree days 1904 1993  
Cooling Degree Days 0 0  
Month to date cooling degree days 0 0  
Year to date cooling degree days 761 557  
Moisture  
Dew Point 24 °F    
Average Humidity 80    
Maximum Humidity 88    
Minimum Humidity 72    
Precipitation  
Precipitation 0.02 in 0.09 in 1.56 in (1967)
Month to date precipitation 2.88 2.72  
Year to date precipitation 44.06 40.91  
Snow  
Snow T in - - ()
Month to date snowfall 9.9  
Since 1 September snowfall 32.8  
Snow Depth 0.00 in    
Sea Level Pressure  
Sea Level Pressure 30.08 in    
Wind  
Wind Speed 5 mph (ESE)    
Max Wind Speed 12 mph    
Max Gust Speed 17 mph    
Visibility 10 miles    
Events Rain , Snow    
T = Trace of Precipitation, MM = Missing Value Source: NWS Daily Summary

Daily Weather History Graph

Daily Weather History Graph

Search for Another Location

Airport or City:

Trip Planner

Search our weather history database for the weather conditions in past years. The results will help you decide how hot, cold, wet, or windy it might be!

Date:

Astronomy

Dec. 28, 2012 Rise Set
Actual Time 7:39 AM EST 5:13 PM EST
Civil Twilight 7:09 AM EST 5:42 PM EST
Nautical Twilight 6:36 AM EST 6:15 PM EST
Astronomical Twilight 6:04 AM EST 6:47 PM EST
Moon 5:47 PM EST (12/28) 7:33 AM EST (12/28)
Length of Visible Light 10h 33m
Length of Day
9h 34m
Full, 100% of the Moon is Illuminated
Dec 28
Full
Jan 4
Last Quarter
Jan 11
New
Jan 18
First Quarter
Jan 26
Full

Hourly Weather History & Observations

Time (EST) Temp. Windchill Dew Point Humidity Pressure Visibility Wind Dir Wind Speed Gust Speed Precip Events Conditions
12:51 AM 25.0 °F 17.1 °F 21.0 °F 85% 30.16 in 10.0 mi NNW 6.9 mph - N/A   Overcast
1:51 AM 25.0 °F 16.3 °F 21.0 °F 85% 30.16 in 10.0 mi North 8.1 mph - N/A   Overcast
2:51 AM 25.0 °F 20.7 °F 21.0 °F 85% 30.18 in 10.0 mi North 3.5 mph - N/A   Overcast
3:51 AM 24.1 °F 19.7 °F 21.0 °F 88% 30.18 in 10.0 mi North 3.5 mph - N/A   Overcast
4:51 AM 24.1 °F 19.7 °F 21.0 °F 88% 30.18 in 10.0 mi NNE 3.5 mph - N/A   Overcast
5:51 AM 24.1 °F 18.2 °F 21.0 °F 88% 30.17 in 10.0 mi NE 4.6 mph - N/A   Overcast
6:51 AM 24.1 °F - 21.0 °F 88% 30.18 in 10.0 mi Calm Calm - N/A   Overcast
7:51 AM 25.0 °F 18.1 °F 21.9 °F 88% 30.16 in 10.0 mi East 5.8 mph - N/A   Overcast
8:51 AM 25.0 °F 20.7 °F 21.9 °F 88% 30.16 in 10.0 mi SE 3.5 mph - N/A   Overcast
9:24 AM 26.6 °F 19.1 °F 21.2 °F 80% 30.04 in 10.0 mi ESE 6.9 mph - N/A   Mostly Cloudy
9:51 AM 26.1 °F 18.4 °F 21.9 °F 84% 30.14 in 10.0 mi ESE 6.9 mph - N/A   Mostly Cloudy
10:51 AM 28.0 °F 24.2 °F 23.0 °F 81% 30.15 in 10.0 mi East 3.5 mph - N/A   Mostly Cloudy
11:51 AM 28.9 °F 25.2 °F 24.1 °F 82% 30.14 in 10.0 mi Variable 3.5 mph - N/A   Overcast
12:51 PM 32.0 °F 26.4 °F 25.0 °F 75% 30.09 in 10.0 mi ESE 5.8 mph - N/A   Scattered Clouds
1:51 PM 34.0 °F 31.0 °F 27.0 °F 75% 30.06 in 10.0 mi SSE 3.5 mph - N/A   Clear
2:51 PM 34.0 °F 28.0 °F 28.0 °F 79% 30.04 in 10.0 mi SE 6.9 mph - N/A   Clear
3:51 PM 34.0 °F 29.8 °F 27.0 °F 75% 30.04 in 10.0 mi SSE 4.6 mph - N/A   Clear
4:51 PM 33.1 °F 27.7 °F 27.0 °F 78% 30.02 in 10.0 mi SSE 5.8 mph - N/A   Mostly Cloudy
5:51 PM 33.1 °F 30.0 °F 27.0 °F 78% 30.02 in 10.0 mi ESE 3.5 mph - N/A   Overcast
6:51 PM 32.0 °F 24.8 °F 26.1 °F 79% 30.04 in 10.0 mi SSE 8.1 mph - N/A   Overcast
7:51 PM 33.8 °F 26.4 °F 26.6 °F 75% 29.91 in 10.0 mi SE 9.2 mph - N/A   Overcast
8:51 PM 32.0 °F 24.2 °F 26.1 °F 79% 29.99 in 10.0 mi SE 9.2 mph - N/A   Overcast
9:51 PM 33.8 °F 28.6 °F 26.6 °F 75% 29.86 in 10.0 mi ESE 5.8 mph - N/A   Overcast
10:51 PM 33.1 °F 30.0 °F 26.1 °F 75% 29.94 in 10.0 mi ESE 3.5 mph - 0.01 in Rain Light Rain
11:51 PM 32.0 °F 23.0 °F 27.0 °F 82% 29.91 in 9.0 mi ESE 11.5 mph - 0.01 in Snow Light Snow